This demonstration page uses our WeatherBlox Daily Observations layout. Learn more.

Left ArrowRight Arrow

Hourly Observations for January 5, 2018

Temp ( °F °C ) Dew Point ( °F °C ) Humidity (%) Winds ( mph kmh ) Pressure ( in mb ) Visibility ( mi km ) Precip ( " mm )
12:53 am 00:53 Clear 16 -8.9 12 -11.1 84 84 NNW 5 7 30.31 1026 10 16 0.00 0.00
1:53 am 01:53 Clear 14 -10 10 -12.2 84 84 N 7 11 30.31 1026 10 16 0.00 0.00
2:53 am 02:53 Clear 13 -10.6 10 -12.2 88 88 N 7 11 30.32 1027 10 16 0.00 0.00
3:53 am 03:53 Clear 13 -10.6 10 -12.2 88 88 N 7 11 30.32 1027 10 16 0.00 0.00
4:53 am 04:53 Clear 12 -11.1 8 -13.3 84 84 Calm 30.34 1027 10 16 0.00 0.00
5:53 am 05:53 Clear 10 -12.2 6 -14.4 84 84 NNE 6 9 30.37 1029 9 14 0.00 0.00
6:53 am 06:53 Clear with Mist and Fog 7 -13.9 4 -15.6 87 87 NE 7 11 30.42 1030 5 8 0.00 0.00
7:38 am 07:38 Mostly Cloudy with Mist and Fog 7 -14 3 -16 85 85 ENE 8 13 30.50 1033 5 8 0.00 0.00
7:53 am 07:53 Mostly Cloudy with Mist and Fog 8 -13.3 5 -15 87 87 NE 7 11 30.43 1030 4 6 0.00 0.00
8:53 am 08:53 Cloudy with Mist and Fog 9 -12.8 6 -14.4 88 88 ENE 8 13 30.43 1031 5 8 0.00 0.00
9:33 am 09:33 Cloudy with Mist and Fog 10 -12 9 -13 92 92 ENE 7 11 30.53 1034 3 4 0.00 0.00
9:53 am 09:53 Cloudy with Mist and Fog 11 -11.7 9 -12.8 92 92 NE 7 11 30.46 1032 3 4 0.00 0.00
10:11 am 10:11 Cloudy with Light Snow 12 -11.1 10 -12.2 92 92 NE 9 15 30.53 1034 1 2 0.00 0.03
10:38 am 10:38 Cloudy with Mist and Fog 12 -11 10 -12 92 92 ENE 10 17 30.53 1034 2 3 0.00 0.00
10:53 am 10:53 Cloudy with Mist and Fog 13 -10.6 9 -12.8 84 84 E 10 17 30.46 1032 3 5 0.00 0.03
11:16 am 11:16 Partly Cloudy with Mist and Fog 12 -11 9 -13 85 85 ENE 9 15 30.53 1034 5 8 0.00 0.00
11:53 am 11:53 Hazy 14 -10 9 -12.8 80 80 E 10 17 30.45 1031 4 6 0.00 0.00
12:03 pm 12:03 Hazy 14 -10 9 -12.8 80 80 E 8 13 30.50 1033 5 8 0.00 0.00
12:53 pm 12:53 Sunny 16 -8.9 9 -12.8 74 74 ENE 9 15 30.44 1031 10 16 0.00 0.00
1:53 pm 13:53 Sunny 17 -8.3 9 -12.8 70 70 Calm 30.43 1031 10 16 0.00 0.00
2:53 pm 14:53 Sunny 18 -7.8 9 -12.8 68 68 E 8 13 30.42 1030 10 16 0.00 0.00
3:53 pm 15:53 Sunny 18 -7.8 9 -12.8 68 68 E 12 19 30.43 1030 10 16 0.00 0.00
4:53 pm 16:53 Sunny 16 -8.9 9 -12.8 74 74 E 10 17 30.45 1031 10 16 0.00 0.00
5:53 pm 17:53 Clear 14 -10 8 -13.3 77 77 E 8 13 30.47 1032 10 16 0.00 0.00
6:53 pm 18:53 Clear 13 -10.6 7 -13.9 77 77 E 6 9 30.49 1033 10 16 0.00 0.00
7:53 pm 19:53 Clear 12 -11.1 7 -13.9 80 80 E 8 13 30.51 1033 10 16 0.00 0.00
8:53 pm 20:53 Clear 12 -11.1 6 -14.4 77 77 E 9 15 30.51 1033 8 13 0.00 0.00
9:53 pm 21:53 Clear 11 -11.7 6 -14.4 81 81 ESE 7 11 30.51 1033 7 11 0.00 0.00
10:53 pm 22:53 Clear 10 -12.2 4 -15.6 76 76 ESE 9 15 30.52 1033 8 13 0.00 0.00
11:53 pm 23:53 Clear 9 -12.8 4 -15.6 80 80 SE 8 13 30.53 1034 8 13 0.00 0.00

Powered by AerisWeather